Weather History for Malatya, Turkey

Change the Weather History Date:

Wednesday, March 27, 2013

  Actual Average Record
Temperature  
Mean Temperature 47 °F -  
Max Temperature 59 °F 64 °F 75 °F (2001)
Min Temperature 35 °F 45 °F 26 °F (2003)
Degree Days  
Heating Degree Days 18    
Moisture  
Dew Point 37 °F    
Average Humidity 67    
Maximum Humidity 93    
Minimum Humidity 44    
Precipitation  
Precipitation 0.00 in 0.08 in - ()
Sea Level Pressure  
Sea Level Pressure 29.79 in    
Wind  
Wind Speed 7 mph ()    
Max Wind Speed 18 mph    
Max Gust Speed -    
Visibility 6.2 miles    
Events      
Averages and records for this station are not official NWS values.
T = Trace of Precipitation, MM = Missing Value Source: Averaged Metar Reports

Daily Weather History Graph

Daily Weather History Graph

Search for Another Location

Airport:

Trip Planner

Search our weather history database for the weather conditions in past years. The results will help you decide how hot, cold, wet, or windy it might be!

Date:

Astronomy

Mar. 27, 2013 Rise Set
Actual Time 5:20 AM EET 5:46 PM EET
Civil Twilight 4:53 AM EET 6:12 PM EET
Nautical Twilight 4:22 AM EET 6:43 PM EET
Astronomical Twilight 3:50 AM EET 7:15 PM EET
Moon 6:05 PM EET (3/27) 4:59 AM EET (3/27)
Length of Visible Light 13h 18m
Length of Day
12h 25m
Full, 100% of the Moon is Illuminated
Mar 27
Full
Apr 3
Last Quarter
Apr 10
New
Apr 18
First Quarter
Apr 25
Full

Hourly Weather History & Observations

Time (EET) Temp. Windchill Dew Point Humidity Pressure Visibility Wind Dir Wind Speed Gust Speed Precip Events Conditions
12:20 AM 44.6 °F 39.2 °F 35.6 °F 71% 29.77 in 6.2 mi NNW 10.4 mph - N/A   Mostly Cloudy
12:50 AM 46.4 °F 41.9 °F 35.6 °F 66% 29.74 in 6.2 mi NNW 9.2 mph - N/A   Mostly Cloudy
1:20 AM 46.4 °F 41.9 °F 35.6 °F 66% 29.74 in 6.2 mi NW 9.2 mph - N/A   Mostly Cloudy
1:50 AM 48.2 °F - 35.6 °F 62% 29.74 in 6.2 mi NNW 10.4 mph - N/A   Mostly Cloudy
2:20 AM 46.4 °F 42.9 °F 37.4 °F 71% 29.74 in 6.2 mi NW 6.9 mph - N/A   Mostly Cloudy
2:50 AM 42.8 °F 39.3 °F 37.4 °F 81% 29.74 in 6.2 mi WSW 5.8 mph - N/A   Mostly Cloudy
3:20 AM 42.8 °F 39.3 °F 37.4 °F 81% 29.71 in 6.2 mi West 5.8 mph - N/A   Mostly Cloudy
3:50 AM 42.8 °F 41.1 °F 35.6 °F 76% 29.71 in 6.2 mi SSE 3.5 mph - N/A   Mostly Cloudy
4:20 AM 41.0 °F 37.1 °F 35.6 °F 81% 29.71 in 6.2 mi South 5.8 mph - N/A   Mostly Cloudy
4:50 AM 39.2 °F 35.9 °F 33.8 °F 81% 29.71 in 6.2 mi SW 4.6 mph - N/A   Mostly Cloudy
5:20 AM 37.4 °F 34.9 °F 32.0 °F 81% 29.71 in 6.2 mi West 3.5 mph - N/A   Mostly Cloudy
5:50 AM 35.6 °F 32.8 °F 33.8 °F 93% 29.71 in 6.2 mi West 3.5 mph - N/A   Mostly Cloudy
6:20 AM 37.4 °F - 33.8 °F 87% 29.71 in 6.2 mi Calm Calm - N/A   Mostly Cloudy
6:50 AM 42.8 °F 40.1 °F 37.4 °F 81% 29.74 in 6.2 mi SSW 4.6 mph - N/A   Mostly Cloudy
7:20 AM 48.2 °F - 39.2 °F 71% 29.74 in 6.2 mi SSW 4.6 mph - N/A   Mostly Cloudy
7:50 AM 50.0 °F - 39.2 °F 66% 29.74 in 6.2 mi SSW 5.8 mph - N/A   Mostly Cloudy
8:20 AM 53.6 °F - 35.6 °F 51% 29.77 in 6.2 mi SSW 4.6 mph - N/A   Mostly Cloudy
8:50 AM 57.2 °F - 35.6 °F 44% 29.77 in 6.2 mi Variable 1.2 mph - N/A   Mostly Cloudy
9:20 AM 59.0 °F - 37.4 °F 45% 29.77 in 6.2 mi NE 3.5 mph - N/A   Mostly Cloudy
9:50 AM 57.2 °F - 35.6 °F 44% 29.77 in 6.2 mi NE 8.1 mph - N/A   Mostly Cloudy
10:20 AM 57.2 °F - 39.2 °F 51% 29.77 in 6.2 mi ENE 6.9 mph - N/A   Mostly Cloudy
10:50 AM 57.2 °F - 37.4 °F 48% 29.77 in 6.2 mi NE 4.6 mph - N/A   Mostly Cloudy
11:20 AM 57.2 °F - 37.4 °F 48% 29.77 in 6.2 mi East 3.5 mph - N/A   Mostly Cloudy
11:50 AM 55.4 °F - 37.4 °F 51% 29.80 in 6.2 mi SW 18.4 mph - N/A   Mostly Cloudy
12:20 PM 55.4 °F - 35.6 °F 47% 29.80 in 6.2 mi SW 9.2 mph - N/A   Mostly Cloudy
12:50 PM 53.6 °F - 37.4 °F 54% 29.80 in 6.2 mi SSW 15.0 mph - N/A   Mostly Cloudy
1:20 PM 53.6 °F - 41.0 °F 62% 29.80 in 6.2 mi SSW 18.4 mph - N/A   Mostly Cloudy
1:50 PM 53.6 °F - 41.0 °F 62% 29.77 in 6.2 mi SW 17.3 mph - N/A   Mostly Cloudy
2:20 PM 53.6 °F - 39.2 °F 58% 29.77 in 6.2 mi SW 16.1 mph - N/A   Mostly Cloudy
2:50 PM 55.4 °F - 41.0 °F 58% 29.77 in 6.2 mi SW 16.1 mph - N/A   Mostly Cloudy
3:20 PM 57.2 °F - 39.2 °F 51% 29.77 in 6.2 mi SSW 11.5 mph - N/A   Mostly Cloudy
3:50 PM 57.2 °F - 41.0 °F 55% 29.80 in 6.2 mi SSW 11.5 mph - N/A   Mostly Cloudy
4:20 PM 55.4 °F - 39.2 °F 54% 29.80 in 6.2 mi SSW 10.4 mph - N/A   Mostly Cloudy
4:50 PM 53.6 °F - 39.2 °F 58% 29.80 in 6.2 mi SSW 6.9 mph - N/A   Mostly Cloudy
5:20 PM 53.6 °F - 39.2 °F 58% 29.83 in 6.2 mi SSW 5.8 mph - N/A   Mostly Cloudy
5:50 PM 51.8 °F - 39.2 °F 62% 29.83 in 6.2 mi SSW 8.1 mph - N/A   Mostly Cloudy
6:20 PM 50.0 °F - 39.2 °F 66% 29.83 in 6.2 mi WSW 6.9 mph - N/A   Mostly Cloudy
6:50 PM 46.4 °F 43.5 °F 39.2 °F 76% 29.86 in 6.2 mi WSW 5.8 mph - N/A   Mostly Cloudy
7:20 PM 42.8 °F 37.5 °F 37.4 °F 81% 29.86 in 6.2 mi SW 9.2 mph - N/A   Scattered Clouds
7:50 PM 42.8 °F 38.6 °F 37.4 °F 81% 29.86 in 6.2 mi SW 6.9 mph - N/A   Scattered Clouds
8:20 PM 39.2 °F 35.0 °F 35.6 °F 87% 29.89 in 6.2 mi SW 5.8 mph - N/A   Scattered Clouds
8:50 PM 41.0 °F 36.4 °F 37.4 °F 87% 29.89 in 6.2 mi SW 6.9 mph - N/A   Scattered Clouds
9:20 PM 44.6 °F 40.7 °F 37.4 °F 76% 29.89 in 6.2 mi SSW 6.9 mph - N/A   Scattered Clouds
9:50 PM 42.8 °F 40.1 °F 37.4 °F 81% 29.89 in 6.2 mi WSW 4.6 mph - N/A   Scattered Clouds
10:20 PM 44.6 °F 41.4 °F 39.2 °F 81% 29.89 in 6.2 mi NE 5.8 mph - N/A   Scattered Clouds
10:50 PM 44.6 °F 40.7 °F 39.2 °F 81% 29.89 in 6.2 mi SSE 6.9 mph - N/A   Scattered Clouds
11:20 PM 42.8 °F 38.6 °F 35.6 °F 76% 29.92 in 6.2 mi SW 6.9 mph - N/A   Scattered Clouds
11:50 PM 39.2 °F 35.0 °F 35.6 °F 87% 29.92 in 6.2 mi West 5.8 mph - N/A   Scattered Clouds